Wetbulb
63.27 62.23 60.59 57.81 48.57 47.08 43.27 45.18 46.14 47.97 47.90 49.14 50.09 48.72 47.23 48.39 47.72 44.19 57.77 61.99 64.00 65.92 69.49 71.24 72.87 73.52 73.39 73.62 73.24 73.01 73.00 72.52 72.11 71.97 72.15 72.17 72.34 71.96 71.81 71.66 72.35 71.97 71.91 71.26 70.29 69.62 69.01 67.83 65.84
59.79 59.87 58.40 53.85 44.59 41.00 41.30 45.39 46.83 47.87 48.74 49.48 49.78 49.27 47.69 46.83 52.27 55.52 58.26 62.39 64.09 65.63 69.62 70.08 71.94 73.10 73.29 73.38 73.01 72.88 72.91 72.86 72.40 72.58 71.99 72.16 71.68 71.52 71.62 71.73 71.79 71.43 70.66 69.61 69.23 68.22 67.09 65.33 64.46
60.45 58.94 52.27 48.18 44.41 40.97 41.31 45.80 46.80 49.19 50.73 48.86 47.86 49.46 47.42 48.53 53.00 54.52 59.97 62.81 63.93 64.11 69.38 70.07 71.52 73.06 73.30 73.12 73.02 72.86 72.77 72.80 72.86 72.52 71.71 71.93 71.34 69.89 69.40 69.02 69.64 70.06 69.09 68.16 67.03 66.50 65.08 63.99 61.89
57.96 55.31 52.09 43.81 42.96 44.33 44.36 46.24 47.94 48.65 49.15 49.89 48.57 47.24 48.91 52.36 52.84 57.25 61.51 63.52 62.53 63.46 67.89 69.70 71.68 72.92 73.17 73.07 73.14 73.02 72.52 72.11 72.62 72.71 72.02 71.76 70.68 69.78 67.56 66.42 67.91 69.05 68.23 66.82 65.16 64.55 63.53 61.82 59.88
56.03 52.47 44.97 42.96 43.99 45.28 44.98 48.82 49.00 47.53 47.83 47.70 48.05 47.06 48.39 51.69 56.26 57.04 60.80 63.01 62.60 62.46 65.60 69.91 71.14 72.21 72.74 72.96 73.07 73.06 72.71 72.37 72.56 72.95 72.66 71.30 70.89 68.54 66.40 65.63 66.78 67.29 67.06 65.33 64.08 63.50 61.72 60.24 58.59
50.75 49.28 42.35 40.90 43.08 46.13 47.41 49.04 47.63 47.12 47.13 47.19 45.32 45.73 47.30 53.00 53.11 54.75 58.31 60.67 63.05 62.87 64.87 69.20 68.61 69.90 71.16 72.20 72.49 72.54 72.48 72.29 72.33 72.88 72.12 71.45 70.11 68.69 66.58 65.86 66.02 66.10 65.73 64.15 63.57 61.46 60.34 58.86 57.37
49.03 46.86 42.54 41.63 42.95 43.95 47.21 48.02 46.09 46.35 46.35 46.70 47.87 43.46 46.86 50.37 53.68 54.15 57.60 59.66 61.79 63.41 64.94 65.46 68.17 68.34 67.70 69.18 70.12 71.17 71.65 71.68 71.98 71.87 71.00 69.97 68.86 68.09 66.55 65.83 65.62 65.55 64.44 63.38 62.72 60.37 59.30 58.28 56.20
50.78 47.46 42.43 41.83 42.31 42.96 47.23 46.73 47.12 46.34 46.09 48.69 47.75 43.83 45.82 50.38 54.37 53.98 56.94 58.79 60.84 62.24 64.32 64.57 66.52 67.64 68.53 68.31 66.80 67.84 69.37 69.97 70.32 69.10 67.44 66.25 65.91 65.64 65.09 64.04 65.46 64.70 63.33 62.77 61.28 59.81 58.54 57.02 54.37
52.63 43.36 41.24 43.43 43.16 44.14 48.10 45.35 47.64 48.80 46.85 47.84 49.32 48.25 50.39 53.31 54.50 53.39 55.49 56.29 58.07 60.67 63.13 64.37 64.57 66.11 67.03 67.69 67.00 65.30 66.74 67.13 66.95 65.71 63.71 62.13 62.67 62.25 61.55 61.47 63.47 63.95 62.98 61.63 60.42 59.32 57.72 55.34 52.21
47.52 43.52 44.57 47.26 45.94 44.89 47.19 46.06 45.87 45.75 45.83 46.34 47.04 49.72 50.94 50.73 50.30 50.87 51.35 52.40 55.42 57.80 60.07 63.23 63.87 64.46 65.50 67.01 65.69 67.29 67.27 67.57 66.51 65.53 63.00 62.72 62.18 61.06 60.88 58.65 61.14 62.63 62.09 61.49 59.97 58.31 55.88 52.86 45.21
48.65 43.72 47.28 47.36 49.04 48.71 47.40 46.31 47.21 45.29 44.03 46.96 46.65 48.62 49.96 49.52 49.10 48.40 49.79 50.85 52.07 56.26 59.13 61.38 62.85 63.66 63.95 64.57 63.81 65.70 66.43 64.99 66.45 66.12 64.54 63.78 63.24 59.11 57.02 55.90 57.18 56.56 56.87 54.72 54.99 52.11 48.02 45.15 44.06
45.11 48.46 48.24 49.08 49.39 47.80 45.88 47.95 45.96 46.21 46.66 49.85 49.50 49.73 48.90 48.46 48.65 48.98 49.54 50.13 49.88 51.84 55.21 59.53 61.81 62.49 62.89 63.36 63.02 62.93 63.57 63.50 63.84 65.60 64.76 63.64 62.40 57.36 55.17 55.28 55.35 54.73 53.15 51.74 49.95 46.14 44.52 44.14 44.17
46.08 47.86 49.29 49.11 48.28 47.35 48.58 46.31 45.72 46.42 48.74 50.01 49.72 49.53 48.48 48.07 48.52 50.06 50.97 51.20 50.60 50.49 51.83 54.95 59.91 61.19 62.07 62.28 61.99 61.93 62.24 63.14 63.38 63.14 64.05 63.88 61.24 55.95 54.74 54.08 54.64 54.91 52.77 50.91 48.01 44.23 43.99 43.13 42.66
47.30 47.06 46.81 47.21 47.07 47.15 45.95 45.20 44.98 46.75 48.41 47.77 48.18 47.37 47.34 47.76 48.08 47.67 48.64 49.17 50.07 51.41 51.71 53.20 56.29 60.10 60.58 61.27 61.26 61.33 61.16 61.52 62.64 62.54 62.85 62.41 59.27 55.30 53.68 52.61 53.44 53.80 52.52 49.32 45.32 43.64 42.68 41.91 41.85
46.64 42.16 44.60 46.02 46.42 45.08 45.54 41.32 42.42 47.06 46.69 46.20 45.96 46.08 46.99 47.84 48.23 48.05 48.69 48.83 49.41 49.94 51.76 52.30 54.09 57.62 59.16 59.10 60.20 60.51 60.29 60.76 61.12 62.48 61.13 60.10 57.80 55.12 53.13 51.71 52.02 51.93 50.00 46.81 43.58 42.93 42.54 41.10 41.83
42.34 41.59 37.37 44.74 44.94 43.70 43.48 37.51 44.64 47.17 45.59 46.06 46.04 45.19 46.24 47.34 47.13 47.32 47.47 47.52 47.17 47.37 48.85 49.76 52.85 53.61 57.26 58.14 58.57 59.77 59.36 59.10 59.33 59.95 59.14 58.60 57.32 55.08 51.95 50.66 50.66 50.43 47.31 43.47 41.97 40.92 40.25 39.45 39.04
40.67 35.48 38.72 41.88 45.40 43.20 41.32 38.19 44.73 46.48 45.67 45.29 44.89 45.51 45.51 45.33 45.22 45.36 45.35 45.08 45.41 45.74 46.19 47.47 48.88 51.06 53.76 57.17 57.54 57.74 58.44 58.03 58.01 58.37 57.82 56.92 56.46 54.67 51.39 49.49 49.46 48.13 44.16 41.45 41.61 39.69 39.40 38.12 38.03
37.18 37.63 39.65 38.39 43.15 42.54 39.47 39.23 44.16 45.83 45.35 44.15 45.08 44.25 44.44 43.61 43.57 44.86 44.39 44.28 43.62 43.56 44.84 45.72 47.69 48.67 51.77 54.10 55.22 55.71 56.28 56.54 56.65 56.51 56.49 55.96 54.80 53.71 49.84 47.85 47.80 45.54 42.00 40.46 40.03 38.86 38.91 38.51 38.26
41.01 39.50 38.09 40.50 44.17 40.63 40.49 39.95 42.30 45.06 45.91 43.48 41.54 43.32 43.21 42.80 44.06 43.93 43.40 42.74 42.26 42.43 42.39 43.74 44.64 45.97 47.86 50.96 51.42 52.29 52.55 54.12 55.45 55.92 55.49 55.81 53.58 52.28 48.98 46.02 45.38 42.86 42.03 41.02 40.22 38.67 38.07 37.60 36.65
39.76 37.68 37.20 41.17 43.56 39.35 39.74 39.23 42.90 44.88 45.09 43.22 43.05 41.93 41.45 41.58 41.95 42.37 41.32 40.98 40.85 40.96 40.93 41.57 42.61 43.54 46.03 48.59 49.33 50.20 48.25 49.76 50.65 54.35 53.98 54.01 53.50 51.46 48.89 45.76 43.81 41.43 39.81 39.43 39.19 38.45 37.15 37.14 37.45
39.53 37.18 37.54 37.75 40.89 39.17 37.85 36.46 39.69 44.35 44.14 44.01 43.24 42.22 41.55 40.26 39.82 39.84 39.85 39.39 39.37 39.51 39.96 40.81 41.14 41.59 43.22 44.58 47.16 47.80 47.33 45.48 45.99 46.44 49.53 52.36 52.35 50.87 47.78 45.87 43.48 41.54 40.02 39.72 38.75 38.14 37.98 34.62 35.43
36.58 41.25 40.30 38.63 34.74 30.55 37.63 29.05 37.58 42.01 39.65 41.19 40.37 38.94 38.77 38.87 39.75 39.86 38.83 38.27 38.56 38.58 39.52 40.40 40.80 40.88 41.73 41.99 41.97 41.04 42.01 41.88 43.68 44.39 44.40 45.17 48.90 48.75 48.55 45.59 43.83 41.49 40.04 38.75 39.54 39.84 39.32 35.81 35.12
38.52 39.25 37.16 36.49 33.93 32.75 33.72 29.63 35.05 39.35 36.84 38.13 38.23 38.84 38.52 38.41 38.71 38.31 38.01 38.83 38.68 38.24 37.93 38.66 39.43 40.16 40.42 40.10 39.62 38.76 38.19 39.31 40.33 41.09 40.92 41.38 44.03 45.81 45.83 45.16 43.57 41.93 40.10 38.47 38.42 37.36 37.42 37.97 35.00
40.11 37.52 36.96 35.34 33.75 26.36 33.95 33.81 32.69 35.45 37.50 35.97 37.36 37.88 38.60 38.41 38.36 38.63 39.03 38.89 37.42 37.35 36.61 36.45 37.32 38.05 38.79 38.93 38.64 37.31 36.48 36.28 36.48 37.17 37.51 38.93 40.29 41.82 43.34 43.23 42.05 41.80 40.30 38.65 37.76 37.25 37.14 36.71 36.35
37.14 34.63 27.44 25.53 24.62 25.28 34.67 31.36 34.82 37.41 39.13 38.43 36.63 36.00 36.77 37.17 36.56 36.55 36.01 35.95 36.29 35.71 36.07 36.47 35.19 35.12 36.44 36.78 36.89 36.97 36.64 36.20 36.17 36.00 36.10 35.78 36.40 37.78 38.99 40.08 39.75 39.98 40.07 39.39 38.30 36.75 35.75 36.22 36.71
37.58 36.87 30.00 23.51 21.82 25.64 32.17 27.34 35.25 37.44 37.78 37.78 37.09 35.89 36.01 35.18 35.77 35.65 35.97 35.18 35.00 35.29 34.73 34.36 34.07 33.40 33.95 34.51 35.09 35.54 35.67 36.19 36.60 36.20 36.15 35.58 35.50 35.75 36.38 36.63 37.70 38.84 39.33 39.06 38.00 35.85 35.40 35.05 36.14
35.77 32.50 37.58 29.06 25.47 24.31 29.71 34.95 38.45 36.54 35.01 34.71 34.29 34.37 33.15 33.84 34.29 34.30 35.71 34.77 34.12 33.88 33.91 33.56 32.92 32.75 32.81 33.04 33.06 32.89 33.25 32.94 32.65 33.32 34.46 34.98 35.52 36.91 35.78 35.28 35.31 35.69 36.76 36.62 36.41 34.52 33.57 34.07 33.89
36.55 39.78 30.31 30.78 23.56 19.74 26.68 28.89 31.60 33.80 33.33 33.60 32.67 32.27 32.88 33.58 33.53 33.59 33.30 34.50 33.43 33.32 33.46 33.12 32.71 32.08 31.72 31.97 32.22 32.48 31.90 31.72 31.17 30.79 30.48 31.55 32.94 33.99 34.25 34.11 34.18 34.46 34.59 34.64 34.05 33.26 33.22 32.75 32.56
34.41 32.09 35.08 34.29 29.75 21.61 21.46 25.51 34.83 35.03 35.41 33.06 33.10 33.21 32.36 31.89 31.15 32.14 32.31 32.02 32.39 32.17 31.70 31.21 31.52 31.10 30.84 30.75 31.39 31.13 31.13 31.42 30.88 29.32 29.63 30.20 30.92 31.87 32.65 33.41 32.88 32.44 32.55 33.14 32.51 32.58 32.63 32.15 31.81
36.94 35.34 34.69 28.57 26.94 29.21 28.39 27.98 40.40 36.17 34.36 34.67 31.95 32.32 31.14 31.81 30.07 30.86 32.06 31.18 31.68 31.26 30.49 30.10 30.21 30.08 30.75 30.55 29.92 30.62 30.86 30.44 29.57 29.18 29.15 29.02 30.23 31.22 31.75 31.98 32.18 32.12 32.06 32.04 31.31 31.51 31.57 30.86 31.01
MSLP
1013.11 1012.45 1011.99 1011.79 1012.15 1011.24 1010.37 1010.50 1010.17 1010.17 1010.26 1010.59 1010.64 1010.84 1011.04 1010.85 1010.69 1011.76 1011.74 1011.78 1012.05 1012.24 1012.95 1013.82 1014.20 1014.62 1015.01 1015.39 1015.77 1016.21 1016.54 1016.82 1017.07 1017.28 1017.48 1017.66 1017.83 1017.95 1018.13 1018.20 1018.23 1018.46 1018.61 1018.79 1019.13 1019.37 1019.50 1019.67 1019.77
1012.87 1012.18 1012.05 1011.56 1011.49 1010.76 1010.53 1010.16 1010.19 1010.34 1010.41 1010.47 1010.47 1010.57 1010.66 1010.34 1010.36 1011.32 1011.76 1011.91 1012.00 1011.99 1012.71 1013.47 1014.09 1014.52 1014.94 1015.28 1015.70 1016.04 1016.35 1016.63 1016.85 1017.15 1017.43 1017.63 1017.84 1018.09 1018.29 1018.42 1018.47 1018.60 1018.77 1019.16 1019.32 1019.48 1019.74 1019.87 1020.07
1013.06 1012.30 1012.17 1011.54 1011.10 1010.71 1010.46 1010.13 1010.03 1010.03 1010.10 1010.46 1010.47 1010.34 1010.36 1010.34 1010.60 1011.21 1011.84 1011.91 1011.96 1012.23 1012.78 1013.26 1013.81 1014.27 1014.79 1015.22 1015.54 1015.89 1016.26 1016.53 1016.72 1016.92 1017.26 1017.60 1017.87 1018.17 1018.52 1018.68 1018.76 1018.81 1019.14 1019.40 1019.66 1019.71 1019.93 1020.11 1020.27
1012.53 1012.17 1012.02 1011.71 1010.93 1010.53 1010.32 1010.12 1010.15 1010.18 1010.35 1010.56 1010.69 1010.68 1010.24 1010.24 1010.70 1011.36 1011.84 1012.02 1012.22 1012.34 1012.52 1013.26 1013.95 1014.21 1014.44 1014.93 1015.42 1015.78 1016.10 1016.40 1016.66 1016.86 1017.11 1017.42 1017.76 1017.97 1018.42 1018.68 1018.75 1018.95 1019.24 1019.51 1019.84 1019.95 1020.03 1020.31 1020.48
1012.41 1012.03 1011.85 1011.37 1010.61 1010.30 1010.20 1010.24 1010.36 1010.44 1010.25 1010.45 1010.69 1010.56 1010.53 1010.56 1010.94 1011.34 1011.71 1012.02 1012.27 1012.53 1012.68 1013.26 1013.77 1014.39 1014.77 1014.98 1015.19 1015.55 1015.90 1016.20 1016.47 1016.68 1016.94 1017.23 1017.36 1017.85 1018.55 1018.91 1018.84 1018.98 1019.23 1019.58 1019.77 1020.04 1020.16 1020.51 1020.62
1012.29 1012.10 1011.86 1011.19 1010.58 1010.07 1010.07 1010.44 1010.52 1010.38 1010.36 1010.47 1010.69 1010.80 1010.60 1010.68 1010.93 1011.33 1011.57 1011.92 1012.05 1012.33 1012.77 1013.40 1013.86 1014.13 1014.57 1014.92 1015.28 1015.54 1015.79 1016.04 1016.28 1016.46 1016.79 1017.10 1017.20 1017.70 1018.30 1018.82 1018.87 1019.07 1019.42 1019.63 1019.82 1020.15 1020.27 1020.81 1020.79
1012.47 1012.29 1011.97 1011.43 1010.98 1010.35 1010.31 1010.59 1010.60 1010.63 1010.53 1010.57 1010.62 1010.93 1010.79 1011.27 1011.24 1011.34 1011.55 1011.68 1011.94 1012.06 1012.60 1013.10 1013.72 1014.20 1014.39 1014.59 1014.85 1015.20 1015.57 1015.83 1016.12 1016.31 1016.62 1016.96 1017.10 1017.52 1018.16 1018.70 1018.86 1019.09 1019.31 1019.55 1019.89 1020.25 1020.70 1020.81 1021.00
1012.72 1012.44 1011.90 1011.30 1010.90 1010.76 1010.74 1010.82 1010.87 1011.04 1010.73 1010.62 1010.70 1010.85 1010.82 1011.03 1011.26 1011.52 1011.72 1011.89 1012.00 1012.23 1012.60 1012.84 1013.10 1013.56 1014.05 1014.39 1014.59 1014.88 1015.21 1015.56 1015.88 1016.23 1016.53 1016.86 1017.12 1017.46 1018.05 1018.67 1018.92 1019.14 1019.34 1019.63 1020.03 1020.42 1020.47 1020.77 1021.09
1012.91 1012.81 1012.00 1011.32 1010.94 1010.85 1010.95 1011.14 1011.02 1010.99 1011.06 1010.90 1010.75 1010.48 1010.13 1010.43 1010.99 1011.40 1011.80 1012.05 1012.13 1012.18 1012.26 1012.43 1012.70 1013.01 1013.46 1013.96 1014.37 1014.80 1015.10 1015.47 1015.82 1016.20 1016.62 1017.01 1017.27 1017.53 1018.12 1018.56 1018.89 1019.08 1019.35 1019.73 1020.14 1020.50 1020.72 1020.94 1021.31
1013.13 1012.70 1011.88 1011.22 1011.14 1011.33 1011.38 1011.38 1011.49 1011.46 1011.24 1010.96 1010.39 1009.70 1009.74 1009.94 1010.62 1010.96 1011.32 1011.69 1011.91 1011.83 1011.98 1012.20 1012.57 1012.71 1012.98 1013.22 1013.69 1014.34 1014.80 1015.07 1015.58 1016.09 1016.54 1016.86 1017.19 1017.61 1018.09 1018.54 1018.92 1019.17 1019.47 1019.81 1020.18 1020.62 1021.05 1021.40 1021.59
1012.74 1012.60 1011.97 1011.65 1011.58 1011.69 1011.94 1011.98 1011.80 1011.54 1011.40 1011.09 1010.72 1010.29 1010.07 1010.04 1010.24 1010.62 1010.88 1010.85 1011.00 1011.06 1011.28 1011.64 1012.12 1012.30 1012.61 1012.92 1013.35 1013.90 1014.30 1014.75 1015.19 1015.44 1015.88 1016.33 1016.80 1017.30 1017.82 1018.50 1018.94 1019.34 1019.61 1020.03 1020.40 1020.87 1021.20 1021.23 1021.14
1012.64 1012.56 1012.40 1012.11 1011.85 1012.13 1012.29 1012.23 1012.21 1011.82 1011.13 1010.59 1010.36 1010.04 1010.02 1010.08 1010.37 1010.32 1010.41 1010.38 1010.31 1010.40 1010.64 1010.91 1011.38 1011.96 1012.34 1012.62 1012.90 1013.28 1013.78 1014.30 1014.77 1015.15 1015.53 1015.91 1016.33 1017.04 1017.49 1018.21 1018.73 1019.20 1019.57 1020.12 1020.60 1021.20 1021.32 1021.17 1021.18
1012.51 1012.66 1012.67 1012.24 1012.16 1012.20 1012.21 1012.35 1012.62 1011.41 1010.82 1010.31 1009.98 1009.72 1009.71 1009.87 1009.81 1009.67 1009.56 1009.62 1009.78 1010.15 1010.27 1010.41 1010.77 1011.29 1011.81 1012.34 1012.55 1012.91 1013.35 1013.74 1014.12 1014.66 1015.04 1015.52 1016.07 1016.82 1017.17 1017.73 1018.26 1018.75 1019.23 1019.70 1020.27 1020.76 1021.11 1021.36 1021.51
1012.55 1012.77 1012.78 1012.54 1012.22 1012.09 1012.21 1012.14 1012.42 1010.85 1010.25 1009.94 1009.59 1009.61 1009.73 1009.90 1009.73 1009.60 1009.65 1009.63 1009.58 1009.67 1009.76 1009.80 1010.27 1010.76 1011.36 1011.92 1012.39 1012.63 1012.82 1013.11 1013.57 1014.18 1014.57 1015.03 1015.66 1016.46 1017.16 1017.70 1018.07 1018.44 1018.80 1019.35 1019.94 1020.46 1020.85 1021.20 1021.42
1013.13 1013.36 1012.81 1011.82 1011.56 1011.83 1012.11 1011.92 1011.82 1010.71 1010.28 1009.80 1009.92 1009.93 1009.92 1010.00 1009.91 1010.83 1010.88 1010.85 1010.73 1010.38 1009.84 1009.82 1009.96 1010.47 1011.11 1011.83 1012.36 1012.62 1012.91 1013.12 1013.47 1013.78 1014.07 1014.51 1015.18 1016.02 1016.74 1017.49 1018.01 1018.38 1018.84 1019.46 1019.99 1020.53 1020.91 1021.22 1021.25
1013.43 1013.37 1012.79 1011.49 1011.39 1012.28 1012.12 1011.91 1011.29 1010.70 1010.64 1009.93 1010.12 1010.36 1010.11 1010.40 1011.54 1011.78 1011.98 1012.08 1011.99 1011.71 1011.37 1010.87 1010.34 1010.30 1010.84 1011.44 1012.12 1012.56 1012.87 1013.21 1013.49 1013.75 1014.06 1014.51 1015.09 1015.74 1016.48 1017.23 1017.76 1018.05 1018.60 1019.19 1019.95 1020.61 1020.96 1021.21 1021.41
1013.46 1013.03 1012.36 1011.67 1011.18 1012.19 1012.49 1012.18 1011.18 1010.50 1010.45 1010.01 1010.02 1010.18 1010.39 1011.68 1012.57 1013.50 1013.77 1013.45 1013.50 1013.05 1012.45 1011.88 1011.31 1010.89 1011.02 1011.53 1012.01 1012.44 1012.71 1013.16 1013.54 1013.92 1014.24 1014.54 1015.07 1015.61 1016.24 1016.91 1017.40 1017.84 1018.46 1019.06 1019.66 1020.37 1020.72 1021.22 1021.54
1013.14 1012.83 1012.37 1012.05 1011.71 1011.83 1012.40 1012.08 1011.59 1010.47 1010.19 1010.33 1010.27 1010.16 1011.82 1013.14 1014.26 1014.84 1015.49 1015.60 1014.83 1014.08 1013.35 1012.64 1012.19 1011.93 1011.67 1011.95 1012.48 1012.93 1013.19 1013.34 1013.52 1013.98 1014.43 1014.88 1015.37 1015.75 1016.15 1016.71 1017.10 1017.50 1018.32 1018.92 1019.52 1019.90 1020.26 1020.50 1020.99
1013.20 1013.07 1012.74 1012.30 1012.05 1012.07 1011.82 1011.67 1011.38 1010.58 1009.92 1010.34 1010.88 1011.53 1012.79 1013.92 1015.31 1016.24 1016.47 1016.08 1015.97 1015.04 1014.51 1013.90 1013.25 1012.87 1012.73 1012.95 1013.50 1013.76 1013.97 1014.00 1014.05 1014.05 1014.38 1014.69 1015.21 1015.93 1016.59 1016.99 1017.26 1017.50 1018.06 1018.56 1018.89 1019.50 1020.02 1020.62 1020.84
1013.19 1013.23 1012.90 1012.39 1011.97 1012.28 1012.07 1011.75 1011.25 1010.43 1010.08 1010.51 1011.41 1012.91 1013.89 1015.01 1016.02 1016.53 1016.80 1016.72 1016.48 1016.35 1015.69 1015.26 1014.74 1014.43 1013.85 1013.97 1014.00 1014.34 1014.73 1014.78 1014.87 1014.64 1014.59 1014.84 1015.14 1015.56 1016.19 1016.88 1017.53 1018.00 1018.22 1018.37 1018.72 1019.08 1019.92 1020.25 1020.22
1013.29 1013.48 1013.24 1013.07 1012.60 1012.59 1012.51 1012.08 1011.36 1010.09 1009.76 1011.16 1012.67 1014.03 1015.32 1016.54 1017.26 1017.49 1017.70 1017.56 1017.31 1017.13 1016.89 1016.34 1016.00 1015.61 1015.40 1014.83 1014.74 1014.78 1015.12 1015.31 1015.32 1015.35 1015.43 1015.39 1015.47 1015.86 1016.20 1016.56 1016.97 1017.50 1018.04 1018.35 1018.48 1018.48 1018.88 1019.63 1019.96
1013.42 1013.22 1013.28 1013.56 1013.91 1013.70 1013.22 1012.34 1011.50 1010.35 1011.32 1012.41 1013.79 1015.29 1016.62 1017.51 1017.94 1018.44 1018.38 1018.48 1018.46 1018.10 1017.77 1017.31 1017.14 1016.93 1016.62 1016.23 1015.77 1016.16 1016.43 1016.90 1016.42 1015.94 1015.81 1015.89 1015.86 1016.03 1016.31 1016.56 1016.85 1017.30 1017.64 1017.79 1017.82 1018.14 1018.09 1018.44 1019.16
1013.28 1013.44 1013.77 1014.29 1014.57 1014.50 1013.92 1013.74 1011.00 1010.64 1012.47 1014.00 1015.16 1016.28 1017.30 1017.96 1018.38 1018.90 1019.29 1019.53 1019.35 1018.87 1018.37 1018.13 1018.12 1018.16 1017.97 1017.60 1017.20 1017.19 1017.52 1017.56 1017.16 1016.70 1016.57 1016.44 1016.15 1016.22 1016.51 1016.75 1016.88 1017.22 1017.56 1017.77 1017.86 1017.92 1018.05 1018.00 1018.20
1013.61 1013.88 1014.06 1014.47 1015.22 1014.99 1013.68 1013.10 1011.63 1011.27 1012.33 1014.49 1015.92 1016.73 1017.61 1018.40 1018.85 1019.30 1019.66 1019.55 1019.68 1019.47 1019.38 1019.04 1018.77 1018.93 1018.98 1018.91 1018.65 1018.23 1018.31 1018.50 1018.10 1017.76 1017.43 1017.30 1016.92 1016.69 1016.54 1016.62 1016.97 1016.94 1017.20 1017.32 1017.61 1017.72 1017.75 1017.67 1017.61
1014.26 1014.65 1014.78 1015.47 1015.70 1014.51 1013.64 1013.30 1011.91 1011.94 1012.64 1013.90 1015.71 1017.11 1017.87 1018.51 1019.01 1019.48 1019.84 1019.98 1020.22 1019.86 1019.63 1019.87 1019.92 1019.98 1019.77 1019.80 1019.57 1019.26 1019.25 1018.82 1018.45 1018.65 1018.57 1018.37 1017.91 1017.55 1017.40 1017.11 1016.94 1016.92 1016.82 1016.99 1017.15 1017.42 1017.44 1017.41 1017.40
1014.03 1014.54 1015.62 1016.11 1016.10 1015.48 1014.78 1013.88 1012.75 1013.27 1013.79 1014.60 1016.06 1017.34 1018.35 1018.98 1019.22 1019.62 1019.92 1020.23 1020.86 1020.41 1020.27 1020.22 1020.38 1020.69 1020.84 1020.96 1020.68 1020.22 1019.54 1018.92 1019.02 1019.13 1019.14 1019.12 1018.69 1018.33 1017.84 1017.61 1017.29 1016.96 1016.80 1016.67 1016.59 1016.98 1017.17 1017.14 1017.05
1014.26 1015.01 1015.79 1016.48 1016.65 1016.59 1015.05 1013.74 1013.23 1013.90 1014.92 1015.80 1017.03 1018.01 1018.86 1019.48 1019.69 1019.82 1020.01 1020.53 1020.72 1020.63 1020.52 1020.54 1020.65 1021.05 1021.14 1021.16 1020.85 1020.50 1019.96 1019.84 1019.91 1019.87 1019.70 1019.65 1019.28 1018.80 1018.31 1017.90 1017.63 1017.23 1017.07 1016.87 1016.80 1016.61 1016.60 1016.86 1016.80
1014.41 1015.24 1016.38 1017.58 1017.50 1016.28 1014.88 1014.39 1013.62 1014.58 1015.57 1016.30 1017.56 1018.24 1018.86 1019.36 1019.64 1019.95 1020.23 1020.44 1020.75 1020.84 1020.91 1020.92 1020.79 1021.04 1021.39 1021.50 1021.13 1021.12 1020.61 1020.46 1020.60 1020.52 1020.29 1019.98 1019.49 1019.08 1018.71 1018.33 1017.95 1017.76 1017.38 1016.98 1016.75 1016.66 1016.47 1016.46 1016.22
1015.30 1015.42 1015.82 1016.71 1016.95 1016.42 1015.80 1014.13 1013.42 1014.76 1015.67 1016.46 1017.48 1018.67 1019.15 1019.54 1020.01 1020.41 1020.55 1020.59 1020.56 1020.80 1020.87 1021.07 1021.28 1021.42 1021.42 1021.35 1021.25 1021.25 1021.24 1020.79 1020.76 1020.76 1020.64 1020.42 1019.89 1019.41 1018.96 1018.58 1018.20 1017.78 1017.66 1017.09 1016.74 1016.35 1016.26 1016.45 1016.21
1015.24 1015.72 1016.03 1016.59 1016.68 1016.39 1015.72 1014.76 1013.93 1015.34 1016.37 1017.09 1018.22 1019.02 1019.63 1019.82 1020.27 1020.53 1020.61 1020.73 1020.76 1020.82 1020.78 1020.83 1020.94 1021.40 1021.36 1021.31 1021.38 1021.54 1021.46 1021.19 1020.84 1020.85 1020.72 1020.44 1020.05 1019.54 1019.16 1018.51 1018.18 1018.01 1017.69 1017.21 1016.56 1016.34 1016.06 1016.41 1016.05
Wind_Speed
8 9 5 3 1 3 2 5 2 9 7 3 3 3 5 6 3 1 4 3 2 8 13 13 14 16 16 14 14 13 12 12 11 11 11 10 10 9 6 7 6 9 12 10 9 8 9 9 7
8 8 2 4 2 2 4 4 9 5 2 4 3 4 4 1 6 7 6 2 3 8 14 14 12 15 15 14 14 14 13 13 13 13 11 10 10 10 9 8 9 12 12 8 9 9 9 8 7
8 6 2 2 3 5 3 4 7 6 6 2 4 1 2 3 7 4 4 5 4 7 12 12 15 16 15 14 14 14 13 12 13 15 13 12 11 9 10 8 7 9 10 8 7 8 9 8 7
4 2 3 1 4 4 4 6 8 7 5 4 4 8 3 6 2 6 5 7 5 7 8 13 17 15 17 16 16 15 15 14 13 13 14 14 14 8 4 0 5 7 9 8 6 7 8 7 7
3 3 3 4 5 3 3 7 6 4 5 2 3 4 8 3 9 7 7 7 6 7 5 12 18 14 14 15 16 16 15 14 13 13 14 15 13 8 7 5 5 7 6 7 7 8 8 7 7
3 1 3 3 8 5 6 6 4 3 1 3 3 4 2 7 6 7 5 6 6 8 7 8 10 12 12 14 15 15 14 14 13 13 15 14 12 10 9 7 7 7 7 7 8 7 8 7 7
1 1 5 5 6 2 4 3 4 6 8 5 3 4 2 5 7 4 4 3 6 6 8 6 8 8 10 11 12 13 13 12 12 14 14 12 13 11 9 8 9 9 8 8 8 7 7 8 7
3 1 4 4 2 5 5 1 2 5 7 3 2 4 2 4 6 2 1 3 4 4 7 7 8 9 8 7 10 11 12 11 11 13 12 11 11 11 9 8 8 10 10 10 9 9 7 7 6
2 2 4 6 2 2 7 4 3 5 6 6 6 7 8 9 8 5 4 3 4 4 7 8 8 9 10 9 9 10 12 10 11 11 10 8 5 7 8 7 9 9 10 10 10 10 9 8 5
2 3 5 6 5 5 9 7 7 8 8 10 10 9 9 5 6 8 7 7 9 9 8 7 7 7 8 9 8 9 7 7 7 6 7 5 6 6 7 7 8 9 10 11 11 9 9 8 4
4 4 6 8 8 7 6 8 8 8 7 11 11 14 12 8 8 3 7 9 9 10 7 9 8 8 8 7 5 5 6 5 5 8 8 6 5 5 5 4 4 4 7 4 6 5 3 5 3
5 8 7 8 6 3 4 8 9 11 12 11 12 11 7 9 7 6 9 8 6 7 9 10 10 8 7 5 5 5 6 5 6 7 6 7 4 5 5 5 5 5 4 5 5 3 4 2 3
7 8 9 8 6 6 7 8 9 17 14 14 12 9 9 9 9 9 10 8 6 5 6 7 10 10 8 8 5 5 5 6 8 8 9 6 6 5 5 5 5 5 6 5 6 5 4 4 3
6 7 9 9 13 8 8 8 5 11 11 12 10 9 8 10 8 7 7 6 6 7 8 7 7 10 8 8 7 5 4 6 8 8 9 8 6 5 5 5 5 5 7 5 5 5 5 5 5
4 5 9 16 10 4 4 7 8 14 6 11 10 9 10 9 9 14 16 15 13 9 6 6 5 7 8 7 6 4 4 4 4 6 7 8 7 7 7 5 5 5 5 7 5 4 4 4 4
5 5 4 4 5 3 8 11 8 9 10 20 13 9 8 6 15 17 18 17 18 17 16 11 5 5 6 7 5 4 3 3 2 4 4 7 7 8 6 5 5 5 5 5 5 4 4 4 4
8 5 8 8 3 7 6 7 12 11 10 16 9 8 4 15 20 19 19 16 16 15 14 15 12 4 2 2 3 3 5 3 3 2 3 7 7 6 6 5 5 6 5 5 5 3 4 4 3
7 8 8 7 7 1 7 11 9 12 11 9 10 5 15 17 17 15 14 14 13 12 13 13 11 12 7 5 4 4 1 1 2 3 3 5 4 6 5 5 6 6 6 6 5 6 4 4 6
8 9 9 7 10 5 9 6 9 12 17 7 4 12 15 15 12 12 12 12 13 15 16 16 15 14 7 5 4 3 2 2 1 1 2 5 6 6 4 3 4 5 8 8 8 5 7 3 4
6 8 9 8 4 1 9 9 11 16 15 1 12 11 12 11 10 11 13 15 16 15 15 16 15 14 10 6 4 4 4 4 3 3 1 1 3 6 6 5 4 5 4 6 7 6 4 3 7
8 8 9 9 7 3 8 9 10 13 1 15 15 13 12 9 8 10 12 12 11 14 14 15 15 13 13 12 5 5 5 4 5 4 3 3 2 1 5 6 6 7 6 7 7 8 10 5 5
9 5 5 4 2 4 5 8 7 12 9 14 12 10 9 8 9 10 10 12 12 10 9 13 14 14 12 13 9 8 5 4 4 1 3 4 3 4 3 5 5 5 4 6 8 8 10 6 9
3 4 2 3 5 6 6 4 6 5 8 9 9 10 8 8 8 9 8 9 8 7 9 9 11 13 14 13 11 7 6 4 4 4 6 5 3 3 5 3 5 5 5 5 7 6 8 6 6
3 3 7 6 3 4 10 10 4 2 8 7 8 9 9 8 8 8 7 7 7 7 8 8 10 10 9 9 11 10 9 7 6 7 6 5 4 3 3 4 4 5 5 6 6 7 8 7 5
2 3 5 2 2 7 4 5 7 5 8 13 13 9 8 8 7 7 7 7 7 8 9 8 10 11 9 9 9 9 8 7 9 7 6 7 5 4 6 4 5 4 5 6 6 6 7 8 8
5 2 4 5 3 6 7 7 4 6 9 12 11 9 8 7 6 7 6 6 4 6 8 7 8 8 8 8 7 7 10 7 7 7 6 6 5 5 7 7 7 7 6 6 6 4 5 6 8
2 2 3 1 1 1 6 9 6 10 8 8 9 8 7 6 5 6 6 5 5 5 6 8 7 7 8 7 6 8 8 9 8 8 6 6 7 8 9 8 8 7 7 6 7 5 6 7 6
4 2 1 1 3 6 5 6 8 3 8 8 8 8 7 6 6 5 5 5 5 6 5 6 7 7 5 5 5 6 7 7 6 6 6 7 6 8 9 9 8 8 7 7 6 6 5 7 6
1 3 4 4 5 3 8 8 2 6 7 10 8 6 6 6 4 2 3 3 5 5 4 5 5 6 6 6 6 6 5 5 5 5 6 6 6 7 7 7 8 7 8 8 7 7 7 8 7
5 8 5 4 8 7 9 11 12 7 8 8 7 5 5 4 2 1 3 3 4 4 5 5 5 5 4 5 5 6 5 6 5 5 6 6 6 6 7 7 7 7 7 7 7 7 6 8 9
Wind_Direction
284 243 275 316 267 208 319 76 6 30 34 55 357 4 289 274 291 339 152 141 135 140 144 160 167 166 166 167 159 158 159 164 165 167 166 164 145 125 122 156 148 142 114 110 108 99 89 85 71
308 305 247 270 253 315 62 31 65 59 34 338 216 256 252 5 71 112 117 131 189 140 144 165 167 167 167 163 163 162 167 175 174 166 161 152 142 131 109 98 117 111 104 111 111 106 101 92 72
268 269 275 311 284 25 8 62 38 20 73 11 314 173 302 4 68 89 108 143 197 151 146 168 166 168 168 168 168 166 176 179 179 173 173 170 160 141 113 100 96 112 116 115 109 111 107 93 82
298 228 264 271 352 30 10 355 33 331 101 101 357 299 144 77 65 78 114 137 192 154 156 153 169 176 171 173 177 175 180 185 187 186 179 174 161 146 162 283 160 140 126 119 120 114 102 91 78
233 264 270 222 245 116 7 18 32 329 301 116 122 297 321 72 110 124 134 149 177 154 159 152 166 179 184 183 181 183 187 190 194 192 187 171 165 160 178 187 205 193 150 125 129 117 105 94 80
281 185 282 288 1 39 80 47 348 262 233 143 182 297 265 128 134 131 129 170 192 159 163 149 170 175 188 189 191 192 193 194 199 202 178 180 151 165 190 200 194 190 167 150 140 126 114 117 98
260 312 268 345 299 293 92 53 329 357 314 3 32 317 284 81 71 95 160 201 175 172 152 166 166 195 198 192 188 192 198 200 199 181 178 175 151 157 181 196 192 179 170 162 144 137 140 131 118
309 298 278 259 273 302 97 91 117 304 298 141 74 254 275 165 140 140 354 275 198 199 164 195 168 177 192 197 200 199 194 196 195 175 165 162 155 150 159 181 188 180 176 165 159 153 134 123 114
292 303 277 290 357 354 135 195 154 240 263 269 225 218 233 165 152 164 203 222 247 224 191 194 196 181 188 193 193 198 193 186 175 169 167 151 149 144 153 172 183 189 176 169 163 161 151 132 129
246 233 266 327 342 330 326 331 330 324 294 296 297 270 246 216 177 185 204 222 206 209 215 194 207 200 188 196 181 184 187 181 175 175 164 165 156 154 165 173 183 180 158 169 168 161 149 161 172
216 232 315 320 342 30 334 313 291 284 282 259 283 310 316 329 323 279 239 220 224 207 192 193 196 204 198 198 180 180 186 175 182 182 169 176 169 165 158 142 159 147 147 149 154 138 177 220 155
248 265 273 287 307 348 280 306 302 281 259 260 273 277 297 297 279 266 269 273 241 234 202 190 192 192 201 194 192 174 177 180 193 201 181 179 168 163 160 147 161 152 155 158 144 166 219 140 93
257 248 274 298 309 277 295 281 272 282 273 267 266 283 276 287 273 249 231 235 237 260 259 220 183 192 191 196 194 188 181 186 188 195 206 179 179 163 154 157 162 164 162 162 160 165 160 156 150
326 343 294 276 265 258 260 274 302 279 281 270 267 274 295 287 301 319 303 251 245 241 223 221 201 188 187 198 201 196 192 185 173 192 201 192 160 147 156 174 176 171 166 157 151 162 165 170 155
1 312 291 270 248 235 126 299 226 256 304 304 298 307 306 314 343 27 31 24 12 3 314 206 211 186 183 197 200 207 197 202 171 192 184 164 154 159 163 169 171 162 149 145 144 158 158 152 154
240 241 295 259 153 167 122 272 299 328 330 296 306 290 289 9 53 38 29 22 18 12 3 357 302 186 177 184 186 183 206 208 198 180 169 159 162 160 165 165 173 162 146 144 146 159 162 162 162
228 250 245 287 210 128 168 243 283 279 271 280 304 296 341 65 45 32 25 24 18 10 7 0 356 319 199 140 165 182 183 182 191 176 167 165 173 175 159 168 173 156 148 148 152 157 153 159 162
263 299 310 319 316 276 197 246 280 294 284 288 300 309 81 63 53 46 30 17 20 14 16 16 9 1 33 55 32 10 18 161 153 175 164 164 167 185 166 173 171 156 151 158 165 168 177 158 160
288 278 281 281 287 288 277 265 270 268 288 302 47 92 82 76 66 46 33 34 21 27 25 21 23 13 29 25 41 25 354 349 46 108 168 180 164 177 186 178 175 159 171 180 177 158 166 162 144
305 288 276 282 267 248 272 281 286 277 259 47 96 68 68 64 56 52 42 31 31 24 27 26 25 19 24 20 26 44 20 27 31 349 87 354 146 165 173 179 182 176 157 173 177 164 153 159 172
248 248 272 259 292 305 271 267 255 270 196 95 81 81 69 61 53 44 38 38 34 30 30 31 27 23 21 16 19 15 35 9 18 1 7 350 3 140 184 195 187 178 179 192 192 179 175 161 213
274 313 292 335 359 237 76 291 248 263 114 96 87 75 71 65 59 45 44 40 30 29 25 36 32 28 21 18 31 30 29 357 334 316 26 355 330 269 226 208 218 201 201 199 196 194 194 147 183
204 20 327 249 239 315 226 247 251 224 139 115 98 96 88 78 71 59 46 44 32 33 36 38 36 34 25 25 29 31 21 356 334 6 15 336 301 282 288 278 236 227 210 225 201 201 204 202 172
120 248 217 213 178 266 212 207 289 170 142 127 111 102 98 86 78 71 65 56 36 25 31 34 40 36 27 30 26 29 25 4 10 359 10 352 345 304 243 264 269 251 232 216 223 218 212 210 208
133 265 321 301 149 222 30 329 243 126 115 148 136 118 106 94 83 73 57 50 33 34 38 40 35 29 22 26 27 27 25 28 32 14 1 353 352 354 335 298 264 249 246 250 232 225 218 214 218
208 243 182 263 260 297 3 249 237 91 74 84 98 107 100 89 85 85 78 71 61 42 48 57 55 44 23 16 24 21 25 31 30 21 11 354 353 336 342 339 328 291 262 256 245 230 227 222 231
106 213 36 359 101 76 246 279 214 119 108 113 126 118 117 118 106 97 94 90 74 61 58 59 60 43 30 22 16 18 24 26 21 13 16 3 355 351 341 334 327 322 293 274 268 246 236 235 233
176 89 78 24 240 226 249 272 263 198 166 148 151 148 150 141 114 94 75 92 84 64 47 56 69 62 34 25 32 21 24 23 19 8 8 358 352 351 345 341 332 321 312 290 283 272 260 243 232
269 231 185 249 208 237 267 254 8 83 159 167 153 118 109 89 53 77 96 62 93 103 85 65 59 64 36 24 12 18 5 16 8 6 353 348 338 342 341 338 333 326 312 304 295 277 265 259 252
275 248 253 233 255 240 248 257 304 44 82 62 89 116 102 96 79 38 144 125 77 75 53 62 45 62 45 25 11 353 356 353 356 350 337 332 321 320 317 331 333 325 313 304 294 288 274 261 256